| time (UTC) | temp C | wind direction | speed KPH | gust KPH | rain 1hr cm | rain 24hr cm | rain mn cm | humidity % | barometer mb |
| 20260902014026 | 13 | 306 | 0.0 | 0.0 | 0.00 | 0.00 | 0.03 | 70 | 1025.6 |
| 20260902013027 | 14 | 306 | 0.0 | 0.0 | 0.00 | 0.00 | 0.03 | 67 | 1025.5 |
| 20260902012043 | 15 | 306 | 0.0 | 0.0 | 0.00 | 0.00 | 0.03 | 65 | 1025.5 |
| 20260902011038 | 16 | 306 | 0.0 | 0.0 | 0.00 | 0.00 | 0.03 | 62 | 1025.7 |
| 20260902005036 | 17 | 306 | 0.0 | 0.0 | 0.00 | 0.00 | 0.03 | 56 | 1026.0 |
| 20260902004037 | 17 | 306 | 0.0 | 0.0 | 0.00 | 0.00 | 0.03 | 53 | 1026.0 |
| 20260902003033 | 17 | 321 | 0.0 | 0.0 | 0.00 | 0.00 | 0.03 | 48 | 1026.2 |
| 20260902002031 | 17 | 54 | 0.0 | 0.0 | 0.00 | 0.00 | 0.03 | 48 | 1026.0 |
| 20260902000034 | 18 | 98 | 0.0 | 0.0 | 0.00 | 0.00 | 0.03 | 46 | 1025.4 |
| 20260901235035 | 18 | 126 | 0.0 | 0.0 | 0.00 | 0.00 | 0.03 | 45 | 1025.3 |
| 20260901234031 | 18 | 166 | 1.6 | 0.0 | 0.00 | 0.00 | 0.03 | 43 | 1025.5 |
| 20260901232030 | 18 | 98 | 1.6 | 0.0 | 0.00 | 0.00 | 0.03 | 43 | 1026.3 |
| 20260901231026 | 17 | 96 | 4.8 | 0.0 | 0.00 | 0.00 | 0.03 | 58 | 1026.5 |
| 20260901230030 | 17 | 109 | 1.6 | 0.0 | 0.00 | 0.00 | 0.03 | 60 | 1026.3 |
| 20260901225025 | 17 | 108 | 3.2 | 0.0 | 0.00 | 0.00 | 0.03 | 61 | 1026.5 |
| 20260901224025 | 17 | 90 | 6.4 | 0.0 | 0.00 | 0.00 | 0.03 | 61 | 1026.6 |
| 20260901223023 | 17 | 88 | 4.8 | 0.0 | 0.00 | 0.00 | 0.03 | 62 | 1026.4 |
| 20260901222026 | 17 | 115 | 6.4 | 0.0 | 0.00 | 0.00 | 0.03 | 65 | 1026.6 |
| 20260901221024 | 16 | 59 | 1.6 | 0.0 | 0.00 | 0.00 | 0.03 | 68 | 1026.5 |
| 20260901220023 | 17 | 317 | 1.6 | 0.0 | 0.00 | 0.00 | 0.03 | 64 | 1026.9 |
| 20260901215038 | 18 | 66 | 1.6 | 0.0 | 0.00 | 0.00 | 0.03 | 62 | 1026.6 |
| 20260901213036 | 18 | 200 | 0.0 | 0.0 | 0.00 | 0.00 | 0.03 | 55 | 1026.8 |
| 20260901211035 | 17 | 280 | 0.0 | 0.0 | 0.00 | 0.00 | 0.03 | 59 | 1027.0 |
| 20260901210031 | 17 | 265 | 3.2 | 0.0 | 0.00 | 0.00 | 0.03 | 56 | 1026.3 |
| 20260901205030 | 20 | 140 | 1.6 | 0.0 | 0.00 | 0.00 | 0.03 | 48 | 1026.2 |
| 20260901204031 | 20 | 145 | 1.6 | 0.0 | 0.00 | 0.00 | 0.03 | 47 | 1026.4 |
| 20260901203029 | 19 | 135 | 0.0 | 0.0 | 0.00 | 0.00 | 0.03 | 50 | 1026.3 |
| 20260901201026 | 18 | 207 | 1.6 | 0.0 | 0.00 | 0.00 | 0.03 | 51 | 1026.5 |
| 20260901200026 | 18 | 241 | 0.0 | 0.0 | 0.00 | 0.00 | 0.03 | 55 | 1026.5 |
| 20260901195024 | 17 | 161 | 0.0 | 0.0 | 0.00 | 0.00 | 0.03 | 55 | 1026.5 |
| 20260901194022 | 17 | 166 | 1.6 | 0.0 | 0.00 | 0.00 | 0.03 | 54 | 1026.5 |
| 20260901193038 | 18 | 156 | 0.0 | 0.0 | 0.00 | 0.00 | 0.03 | 52 | 1026.5 |
| 20260901192033 | 19 | 153 | 1.6 | 0.0 | 0.00 | 0.00 | 0.03 | 50 | 1027.3 |
| 20260901191036 | 19 | 220 | 1.6 | 0.0 | 0.00 | 0.00 | 0.03 | 50 | 1027.3 |
| 20260901185034 | 19 | 261 | 1.6 | 0.0 | 0.00 | 0.00 | 0.03 | 52 | 1027.4 |
| 20260901183036 | 18 | 213 | 1.6 | 0.0 | 0.00 | 0.00 | 0.03 | 55 | 1027.6 |
| 20260901182035 | 18 | 355 | 1.6 | 0.0 | 0.00 | 0.00 | 0.03 | 55 | 1027.8 |
| 20260901181031 | 18 | 152 | 0.0 | 0.0 | 0.00 | 0.00 | 0.03 | 55 | 1027.7 |
| 20260901180029 | 18 | 116 | 1.6 | 0.0 | 0.00 | 0.00 | 0.03 | 59 | 1027.0 |
| 20260901175025 | 18 | 258 | 1.6 | 0.0 | 0.00 | 0.00 | 0.03 | 61 | 1026.9 |
| 20260901174025 | 18 | 126 | 1.6 | 0.0 | 0.00 | 0.00 | 0.03 | 56 | 1026.9 |
| 20260901172040 | 17 | 163 | 1.6 | 0.0 | 0.00 | 0.00 | 0.03 | 58 | 1027.5 |
| 20260901170033 | 17 | 287 | 0.0 | 0.0 | 0.00 | 0.00 | 0.03 | 61 | 1027.9 |
| 20260901165030 | 17 | 209 | 1.6 | 0.0 | 0.00 | 0.00 | 0.03 | 59 | 1028.1 |
| 20260901164033 | 17 | 271 | 0.0 | 0.0 | 0.00 | 0.00 | 0.03 | 61 | 1028.1 |
| 20260901163030 | 16 | 238 | 1.6 | 0.0 | 0.00 | 0.00 | 0.03 | 65 | 1028.0 |
| 20260901162025 | 16 | 192 | 0.0 | 0.0 | 0.00 | 0.00 | 0.03 | 64 | 1028.0 |
| 20260901161021 | 16 | 252 | 0.0 | 0.0 | 0.00 | 0.00 | 0.03 | 65 | 1027.9 |
| 20260901160023 | 15 | 135 | 1.6 | 0.0 | 0.00 | 0.00 | 0.03 | 68 | 1028.0 |
| 20260901155019 | 15 | 238 | 0.0 | 0.0 | 0.00 | 0.00 | 0.03 | 70 | 1028.2 |
| 20260901154039 | 15 | 236 | 1.6 | 0.0 | 0.00 | 0.00 | 0.03 | 71 | 1027.7 |
| 20260901153035 | 15 | 292 | 1.6 | 0.0 | 0.00 | 0.00 | 0.03 | 74 | 1027.5 |
| 20260901152031 | 15 | 165 | 0.0 | 0.0 | 0.00 | 0.00 | 0.03 | 73 | 1027.4 |
| 20260901151035 | 13 | 242 | 0.0 | 0.0 | 0.00 | 0.00 | 0.03 | 76 | 1027.8 |
| 20260901145029 | 12 | 168 | 0.0 | 0.0 | 0.00 | 0.00 | 0.03 | 83 | 1027.9 |
| 20260901143025 | 11 | 242 | 0.0 | 0.0 | 0.00 | 0.00 | 0.03 | 85 | 1028.1 |
| 20260901142029 | 11 | 302 | 0.0 | 0.0 | 0.00 | 0.00 | 0.03 | 87 | 1028.1 |
| 20260901135028 | 9 | 259 | 0.0 | 0.0 | 0.00 | 0.00 | 0.03 | 94 | 1027.6 |
| 20260901133029 | 8 | 260 | 0.0 | 0.0 | 0.00 | 0.00 | 0.03 | 94 | 1027.6 |
| 20260901131026 | 8 | 259 | 0.0 | 0.0 | 0.00 | 0.00 | 0.03 | 95 | 1027.5 |
| 20260901130026 | 8 | 259 | 0.0 | 0.0 | 0.00 | 0.00 | 0.03 | 95 | 1027.3 |
| 20260901124032 | 8 | 295 | 0.0 | 0.0 | 0.00 | 0.00 | 0.03 | 95 | 1027.1 |
| 20260901123027 | 8 | 295 | 0.0 | 0.0 | 0.00 | 0.00 | 0.03 | 95 | 1027.1 |
| 20260901122026 | 8 | 295 | 0.0 | 0.0 | 0.00 | 0.00 | 0.03 | 95 | 1027.0 |
| 20260901121023 | 8 | 84 | 0.0 | 0.0 | 0.00 | 0.00 | 0.03 | 95 | 1026.9 |
| 20260901120024 | 8 | 84 | 0.0 | 0.0 | 0.00 | 0.00 | 0.03 | 96 | 1026.8 |
| 20260901115023 | 8 | 84 | 0.0 | 0.0 | 0.00 | 0.00 | 0.03 | 96 | 1026.8 |
| 20260901114024 | 8 | 84 | 0.0 | 0.0 | 0.00 | 0.00 | 0.03 | 96 | 1026.7 |
| 20260901113021 | 8 | 84 | 0.0 | 0.0 | 0.00 | 0.00 | 0.03 | 96 | 1026.4 |
| 20260901112037 | 8 | 84 | 0.0 | 0.0 | 0.00 | 0.00 | 0.03 | 96 | 1026.6 |
| 20260901111039 | 8 | 84 | 0.0 | 0.0 | 0.00 | 0.00 | 0.03 | 96 | 1026.3 |
| 20260901110035 | 8 | 84 | 0.0 | 0.0 | 0.00 | 0.00 | 0.03 | 96 | 1026.5 |
| 20260901105031 | 8 | 84 | 0.0 | 0.0 | 0.00 | 0.00 | 0.03 | 96 | 1026.6 |
| 20260901104029 | 8 | 84 | 0.0 | 0.0 | 0.00 | 0.00 | 0.00 | 96 | 1026.6 |
| 20260901103035 | 7 | 84 | 0.0 | 0.0 | 0.00 | 0.00 | 0.00 | 95 | 1026.6 |
| 20260901101030 | 7 | 84 | 0.0 | 0.0 | 0.00 | 0.00 | 0.00 | 95 | 1026.6 |
| 20260901095034 | 8 | 84 | 0.0 | 0.0 | 0.00 | 0.00 | 0.00 | 95 | 1026.8 |
| 20260901093038 | 8 | 84 | 0.0 | 0.0 | 0.00 | 0.00 | 0.00 | 96 | 1026.9 |
| 20260901092019 | 8 | 84 | 0.0 | 0.0 | 0.00 | 0.00 | 0.00 | 96 | 1026.8 |
| 20260901091038 | 8 | 84 | 0.0 | 0.0 | 0.00 | 0.00 | 0.00 | 95 | 1026.8 |
| 20260901090033 | 8 | 84 | 0.0 | 0.0 | 0.00 | 0.00 | 0.00 | 95 | 1027.1 |
| 20260901085031 | 8 | 84 | 0.0 | 0.0 | 0.00 | 0.00 | 0.00 | 95 | 1027.2 |
| 20260901083034 | 8 | 84 | 0.0 | 0.0 | 0.00 | 0.00 | 0.00 | 95 | 1027.2 |
| 20260901082033 | 9 | 84 | 0.0 | 0.0 | 0.00 | 0.00 | 0.00 | 95 | 1027.3 |
| 20260901081031 | 9 | 84 | 0.0 | 0.0 | 0.00 | 0.00 | 0.00 | 95 | 1027.4 |
| 20260901080030 | 9 | 84 | 0.0 | 0.0 | 0.00 | 0.00 | 0.00 | 95 | 1026.9 |
| 20260901075035 | 9 | 84 | 0.0 | 0.0 | 0.00 | 0.00 | 0.00 | 95 | 1026.9 |
| 20260901074033 | 9 | 84 | 0.0 | 0.0 | 0.00 | 0.00 | 0.00 | 95 | 1027.7 |
| 20260901072031 | 9 | 84 | 0.0 | 0.0 | 0.00 | 0.00 | 0.00 | 95 | 1027.7 |
| 20260901071029 | 9 | 84 | 0.0 | 0.0 | 0.00 | 0.00 | 0.00 | 95 | 1027.8 |
| 20260901070034 | 10 | 84 | 0.0 | 0.0 | 0.00 | 0.00 | 0.00 | 94 | 1027.9 |
| 20260901064030 | 10 | 84 | 0.0 | 0.0 | 0.00 | 0.00 | 0.00 | 95 | 1027.9 |
| 20260901063026 | 10 | 84 | 0.0 | 0.0 | 0.00 | 0.00 | 0.00 | 94 | 1028.0 |
| 20260901062027 | 10 | 84 | 0.0 | 0.0 | 0.00 | 0.00 | 0.00 | 94 | 1028.0 |
| 20260901061024 | 10 | 84 | 0.0 | 0.0 | 0.00 | 0.00 | 0.00 | 94 | 1027.8 |
| 20260901060020 | 10 | 84 | 0.0 | 0.0 | 0.00 | 0.00 | 0.00 | 93 | 1027.7 |
| 20260901055037 | 10 | 84 | 0.0 | 0.0 | 0.00 | 0.00 | 0.10 | 93 | 1027.8 |
| 20260901054036 | 10 | 84 | 0.0 | 0.0 | 0.00 | 0.00 | 0.10 | 93 | 1027.9 |
| 20260901050036 | 10 | 84 | 0.0 | 0.0 | 0.00 | 0.00 | 0.08 | 93 | 1027.9 |
| 20260901043039 | 10 | 84 | 0.0 | 0.0 | 0.00 | 0.00 | 0.08 | 93 | 1027.7 |
| 20260901042033 | 10 | 84 | 0.0 | 0.0 | 0.00 | 0.00 | 0.08 | 93 | 1027.7 |
| 20260901040034 | 10 | 84 | 0.0 | 0.0 | 0.00 | 0.00 | 0.08 | 93 | 1027.6 |
| 20260901035033 | 10 | 84 | 0.0 | 0.0 | 0.00 | 0.00 | 0.08 | 93 | 1027.8 |
| 20260901033031 | 10 | 84 | 0.0 | 0.0 | 0.00 | 0.00 | 0.08 | 93 | 1028.1 |
| 20260901032029 | 10 | 84 | 0.0 | 0.0 | 0.00 | 0.00 | 0.08 | 93 | 1028.4 |
| 20260901031027 | 10 | 84 | 0.0 | 0.0 | 0.00 | 0.00 | 0.08 | 92 | 1028.4 |
| 20260901030031 | 10 | 84 | 0.0 | 0.0 | 0.00 | 0.00 | 0.08 | 92 | 1028.5 |
| 20260901025028 | 10 | 84 | 0.0 | 0.0 | 0.00 | 0.00 | 0.08 | 92 | 1028.5 |
| 20260901024025 | 11 | 84 | 1.6 | 0.0 | 0.00 | 0.00 | 0.08 | 92 | 1028.4 |
| 20260901023023 | 11 | 84 | 0.0 | 0.0 | 0.00 | 0.00 | 0.08 | 92 | 1028.5 |
| 20260901022041 | 11 | 84 | 1.6 | 0.0 | 0.00 | 0.00 | 0.08 | 91 | 1028.3 |
| 20260901021022 | 11 | 111 | 1.6 | 0.0 | 0.00 | 0.00 | 0.08 | 91 | 1028.7 |
| 20260901020042 | 11 | 286 | 0.0 | 0.0 | 0.00 | 0.00 | 0.05 | 91 | 1028.9 |
| 20260901015038 | 11 | 286 | 0.0 | 0.0 | 0.00 | 0.00 | 0.05 | 91 | 1028.5 |